{"data":{"norad_id":59565,"epoch":"2026-09-21T06:47:51.236160Z","epoch_age_seconds":100497,"freshness":"FRESH","line1":"1 59565U 24076B   26264.28323190  .00000774  00000+0  37672-4 0  9993","line2":"2 59565  43.0052 344.6264 0001326 266.1462  93.9238 15.27575441136414","mean_motion":15.27575441,"eccentricity":0.0001326,"inclination_deg":43.0052,"raan_deg":344.6264,"arg_perigee_deg":266.1462,"mean_anomaly_deg":93.9238,"bstar":3.7672e-5,"rev_number":13641,"period_min":94.267030049745,"perigee_km":482.1529522732,"apogee_km":483.9725424462,"semimajor_km":6861.1997473597,"source":"CELESTRAK","updated_at":"2026-09-22T09:00:48.977164Z"}}